Scottsbluff, NE

9:29 PM MST on November 21, 2019 (GMT -0700)
Heilig

Weather History for KBFF - July, 2019

Change the Weather History Date:

Saturday, July 13, 2019

  Actual Average Record
Temperature  
Mean Temperature 75 °F -  
Max Temperature 91 °F 89 °F 104 °F (1940)
Min Temperature 59 °F 58 °F 45 °F (1950)
Cooling Degree Days 10    
Growing Degree Days 25 (Base 50)    
Moisture  
Dew Point 32 °F    
Average Humidity 8    
Maximum Humidity 10    
Minimum Humidity 6    
Precipitation  
Precipitation 0.00 in - - ()
Sea Level Pressure  
Sea Level Pressure 29.93 in    
Wind  
Wind Speed 5 mph (ESE)    
Max Wind Speed 13 mph    
Max Gust Speed -    
Visibility 10 miles    
Events      
Averages and records for this station are not official NWS values.
T = Trace of Precipitation, MM = Missing Value Source: NWS Daily Summary

Daily Weather History Graph

Daily Weather History Graph

Search for Another Location

Airport or City:

Astronomy

Jul. 13, 2019 Rise Set
Actual Time 5:30 AM MDT 8:29 PM MDT
Civil Twilight 4:57 AM MDT 9:02 PM MDT
Nautical Twilight 4:14 AM MDT 9:44 PM MDT
Astronomical Twilight 3:25 AM MDT 10:34 PM MDT
Moon 5:53 PM MDT (7/13) 2:53 AM MDT (7/13)
Length of Visible Light 16h 05m
Length of Day
14h 58m
Waxing Gibbous, 90% of the Moon is Illuminated
Jul 13
Waxing Gibbous
Jul 16
Full
Jul 24
Last Quarter
Jul 31
New
Aug 7
First Quarter

Hourly Weather History & Observations

Time (MDT) Temp. Dew Point Humidity Pressure Visibility Wind Dir Wind Speed Gust Speed Precip Events Conditions
12:53 AM 64.0 °F - N/A% 29.96 in 10.0 mi East 8.1 mph - N/A   Clear
1:53 AM 62.1 °F - N/A% 29.95 in 10.0 mi NNE 6.9 mph - N/A   Clear
2:53 AM 60.1 °F - N/A% 29.94 in 10.0 mi Calm Calm - N/A   Clear
3:53 AM 61.0 °F - N/A% 29.95 in 10.0 mi East 4.6 mph - N/A   Clear
4:53 AM 61.0 °F - N/A% 29.95 in 10.0 mi Calm Calm - N/A   Clear
5:53 AM 62.1 °F - N/A% 29.96 in 10.0 mi SE 3.5 mph - N/A   Clear
6:53 AM 64.9 °F - N/A% 29.97 in 10.0 mi West 4.6 mph - N/A   Clear
7:53 AM 68.0 °F - N/A% 29.98 in 10.0 mi Calm Calm - N/A   Clear
8:53 AM 73.9 °F - N/A% 29.99 in 10.0 mi Calm Calm - N/A   Clear
9:53 AM 79.0 °F - N/A% 29.96 in 10.0 mi Variable 4.6 mph - N/A   Clear
10:53 AM 82.9 °F - N/A% 29.97 in 10.0 mi SSE 6.9 mph - N/A   Clear
11:53 AM 84.9 °F - N/A% 29.95 in 10.0 mi South 5.8 mph - N/A   Clear
12:53 PM 86.0 °F - N/A% 29.96 in 10.0 mi South 5.8 mph - N/A   Clear
1:53 PM 89.1 °F - N/A% 29.93 in 10.0 mi ESE 6.9 mph - N/A   Clear
2:53 PM 90.0 °F - N/A% 29.91 in 10.0 mi SE 6.9 mph - N/A   Clear
3:53 PM 91.0 °F - N/A% 29.91 in 10.0 mi ESE 11.5 mph - N/A   Clear
4:53 PM 91.0 °F - N/A% 29.89 in 10.0 mi East 11.5 mph - N/A   Clear
5:53 PM 91.0 °F - N/A% 29.87 in 10.0 mi East 12.7 mph - N/A   Clear
6:53 PM 86.0 °F - N/A% 29.88 in 10.0 mi East 9.2 mph - N/A   Clear
7:53 PM 82.9 °F - N/A% 29.88 in 10.0 mi East 8.1 mph - N/A   Clear
8:53 PM 79.0 °F - N/A% 29.89 in 10.0 mi ESE 4.6 mph - N/A   Clear
9:53 PM 75.9 °F - N/A% 29.90 in 10.0 mi Calm Calm - N/A   Clear
10:53 PM 78.1 °F - N/A% 29.91 in 10.0 mi Calm Calm - N/A   Clear
11:53 PM 78.1 °F - N/A% 29.89 in 10.0 mi Calm Calm - N/A   Clear